Theta_e
334 333 332 331 328 325 320 314 298 304 300 295 299 299 302 309 310 309 309 308 307 307 307 308 307 308 311 311 307 306 303 308 309 310 307 303 307 306 305 303 302 302 303 304 305 307 308 312 329 341 342 343 343 344 344 344 344 343 343 343 342 342 342 342 341 342 341 340 340 338 337 337 336 335 335 334 333 333 332 332 332 332 331 331 331 331 330 330 331 331 330 329 328 328 328 328 327
332 330 331 328 321 320 310 312 304 302 299 298 298 304 307 308 308 309 309 310 309 308 307 308 308 306 306 306 307 310 307 305 304 302 301 306 305 306 303 302 301 301 302 303 305 306 308 311 330 338 340 341 340 340 340 340 340 341 342 342 342 342 341 342 341 341 340 339 338 337 337 336 335 335 334 333 333 333 332 332 331 330 330 329 330 329 329 328 329 329 329 328 328 327 327 326 326
329 327 323 322 319 317 313 309 298 298 296 292 299 302 309 307 308 311 313 310 308 308 307 306 305 305 307 307 308 308 310 301 303 306 307 305 303 303 301 301 301 301 302 303 304 305 307 313 332 335 338 338 338 337 337 337 337 337 338 338 338 339 339 338 338 338 338 337 336 335 335 335 334 333 332 332 332 331 331 329 330 330 329 329 329 329 328 328 328 327 327 327 326 326 326 325 325
330 326 325 321 311 314 305 303 301 298 295 297 299 305 308 310 310 310 310 308 307 307 306 306 305 304 304 307 307 307 306 305 305 304 304 302 301 300 300 300 302 301 302 303 303 304 306 314 333 334 335 336 336 336 335 335 335 335 334 335 336 336 336 336 335 335 335 335 335 335 334 334 333 332 331 330 329 329 328 328 329 329 328 328 328 328 327 326 326 326 325 325 325 325 324 324 324
328 324 320 318 312 306 305 302 300 299 294 298 298 306 309 311 310 308 307 308 307 307 306 306 307 303 303 302 304 308 307 306 305 305 305 303 301 300 300 300 300 300 301 301 302 303 304 318 332 333 334 334 335 335 334 334 333 333 333 333 334 334 333 333 333 333 332 332 332 332 331 331 331 330 330 329 328 328 328 327 326 326 327 327 326 326 326 325 325 324 323 323 322 323 322 322 322
326 323 321 319 310 312 306 298 298 297 304 304 302 306 310 311 309 308 306 306 306 306 306 306 306 304 304 305 304 305 306 308 308 304 303 302 300 300 300 300 299 299 300 301 302 302 305 320 330 331 333 333 333 334 333 333 333 332 332 332 332 332 332 332 332 332 332 331 331 331 330 329 329 329 328 328 327 327 325 325 324 324 325 325 325 325 324 323 323 322 321 321 321 320 320 321 320
321 318 315 316 313 313 302 298 299 301 303 305 308 309 310 310 310 308 307 306 306 306 306 306 305 306 306 306 303 306 305 301 303 305 302 302 300 299 300 299 299 298 299 300 302 302 305 316 326 330 331 332 332 332 332 332 332 331 331 331 331 330 329 329 330 330 329 329 329 329 329 328 328 327 327 326 326 326 324 324 323 323 322 323 323 323 323 322 321 320 320 320 319 319 319 320 319
321 316 313 308 305 308 301 301 301 304 305 308 308 310 310 311 310 309 309 310 308 305 305 305 305 303 305 302 305 304 301 301 305 303 302 300 300 299 299 298 297 298 299 299 301 302 304 310 316 325 328 330 331 331 330 331 330 330 329 329 329 329 328 328 328 328 328 327 328 327 328 328 327 326 325 325 325 324 323 322 322 322 323 322 321 322 321 321 320 320 319 319 319 319 319 319 318
318 315 312 309 302 305 302 301 303 304 306 308 309 308 307 310 310 311 308 307 306 305 304 306 306 304 307 303 305 303 304 303 304 302 301 301 298 298 298 297 296 297 298 299 301 303 304 305 311 318 324 327 328 329 329 328 328 328 328 328 328 327 327 327 326 326 326 325 325 325 325 324 324 323 323 322 322 322 321 321 321 322 321 321 320 321 320 320 318 318 317 317 318 318 318 318 318
315 315 304 306 306 299 300 300 299 304 307 309 309 309 308 308 308 309 309 304 306 306 307 308 306 303 304 306 307 303 306 305 303 302 301 300 298 298 297 297 297 296 297 298 300 300 301 302 306 309 316 322 324 326 326 327 327 327 326 325 326 325 326 326 326 326 325 325 324 324 323 323 322 321 321 320 320 320 320 320 320 320 319 319 319 319 318 318 317 316 316 316 316 316 316 316 316
308 314 313 304 300 298 297 300 301 304 306 309 309 310 309 309 308 307 307 307 305 307 306 304 303 303 305 308 309 302 304 303 302 301 300 299 298 297 296 298 297 297 297 298 301 300 300 301 302 305 308 314 319 322 323 324 324 325 325 325 325 325 325 324 324 324 324 323 323 322 322 322 321 321 320 320 320 319 319 318 318 318 318 317 317 317 317 316 316 315 315 314 315 314 315 314 314
306 308 308 301 299 298 299 299 302 305 307 308 308 311 311 309 308 307 307 305 305 303 304 303 306 309 305 307 308 301 300 302 302 302 300 299 296 297 297 297 297 297 297 297 298 298 299 300 299 301 304 306 311 316 319 321 322 323 323 323 323 323 323 323 323 322 322 322 321 321 321 320 320 320 319 319 318 317 317 317 316 316 315 315 316 315 315 315 315 314 314 314 314 313 313 312 312
310 309 304 301 301 300 301 300 303 303 305 307 308 310 310 309 307 310 311 309 306 305 306 306 305 306 306 307 303 300 298 301 303 301 299 297 297 297 297 297 297 296 297 298 298 297 299 298 297 298 301 302 304 310 312 315 317 318 319 320 320 320 320 320 320 320 319 319 319 318 319 318 318 318 318 317 316 315 314 315 315 314 314 314 314 314 314 314 314 313 313 312 312 312 311 311 309
310 310 306 300 301 302 301 302 302 301 302 308 311 307 310 309 310 309 309 306 305 305 306 309 305 306 305 306 305 303 301 303 301 300 299 298 298 297 297 299 297 296 297 297 297 298 298 297 296 297 298 298 301 305 307 308 310 312 314 314 314 315 316 316 316 316 316 315 315 315 315 315 315 315 315 314 314 313 313 312 312 313 313 312 312 312 312 312 312 311 311 311 310 310 309 308 308
310 310 307 304 301 302 303 300 300 301 302 308 307 307 305 305 302 306 307 308 308 305 300 304 307 304 307 307 306 305 304 301 300 300 299 298 297 297 297 297 296 296 296 297 296 296 297 297 296 296 296 297 299 302 303 303 305 307 308 309 310 310 311 311 311 311 311 311 311 311 312 312 311 312 311 311 312 311 310 310 310 311 311 310 310 310 310 310 309 310 309 309 308 308 308 307 306
312 311 307 301 300 301 301 301 303 302 303 308 304 307 307 302 302 303 306 304 302 300 304 301 303 303 303 306 304 302 301 299 300 299 299 297 298 298 297 295 295 295 295 295 295 296 295 295 296 296 296 297 298 302 302 301 301 302 304 304 305 306 306 306 306 305 305 306 306 307 308 307 308 308 309 308 308 309 308 307 308 309 309 309 309 309 308 307 307 307 306 307 306 306 305 304 303
312 312 302 301 298 299 302 302 302 300 306 306 303 305 306 306 300 301 300 302 302 301 299 303 302 304 302 304 301 299 299 299 299 298 299 297 296 295 296 296 295 295 295 294 294 294 295 295 295 295 295 296 297 296 297 298 296 296 297 298 298 298 299 299 299 299 299 299 299 298 297 298 300 302 303 304 305 304 305 306 306 307 307 308 307 307 307 306 305 304 303 302 301 300 300 301 300
312 305 302 299 302 299 304 303 305 306 305 306 303 306 308 307 300 302 301 300 301 302 299 302 303 300 304 303 300 300 299 297 297 297 299 298 297 295 295 296 295 294 294 293 293 294 294 295 295 295 295 295 295 294 293 293 294 293 294 294 294 294 294 294 294 295 294 296 294 296 296 296 297 298 298 300 302 302 302 302 303 304 304 305 305 305 304 304 303 302 301 300 297 296 295 295 296
308 304 302 299 303 304 306 307 309 306 306 308 306 305 306 307 305 302 301 303 301 301 301 302 301 302 303 302 299 298 298 297 296 297 299 301 298 297 297 296 295 293 293 294 293 292 293 294 295 295 295 294 294 293 292 292 291 292 292 292 293 293 292 292 292 291 292 292 293 294 295 295 295 296 296 297 297 298 298 298 299 300 300 301 302 302 301 300 300 299 298 297 295 293 292 292 292
306 306 301 302 305 307 307 309 309 309 308 306 305 304 303 305 306 302 301 304 301 302 305 302 302 305 303 301 299 298 297 297 297 297 298 302 299 299 298 296 294 294 294 293 292 293 293 293 294 294 294 294 295 294 294 294 293 292 292 292 291 291 291 291 292 292 292 292 291 291 291 293 293 292 290 290 291 294 292 292 292 292 292 292 293 293 294 294 295 295 294 293 292 292 292 291 291
305 305 302 304 305 305 306 308 309 308 308 308 306 302 302 304 304 303 303 302 304 305 308 307 307 307 308 302 300 297 296 296 296 296 297 299 301 300 300 298 296 294 294 294 293 292 291 292 293 294 294 295 295 295 294 295 295 294 293 292 292 291 291 291 291 291 292 292 292 291 291 291 291 290 290 290 290 289 290 290 289 289 289 289 288 289 289 290 290 290 290 290 290 291 290 290 291
307 304 305 305 305 305 306 307 307 307 305 307 305 304 304 303 302 302 303 302 302 308 309 310 309 309 307 302 300 298 296 296 296 296 296 297 300 300 299 299 297 295 294 293 293 292 292 292 293 293 293 293 294 294 294 293 294 294 294 293 293 293 293 291 290 290 290 291 291 290 290 289 290 290 290 289 289 288 288 288 289 289 289 289 289 290 289 290 289 290 289 289 289 290 289 289 289
302 305 305 305 305 305 304 304 303 306 306 306 304 306 302 303 304 303 302 303 307 304 303 303 306 305 305 305 301 297 297 296 296 296 297 297 298 301 298 298 295 294 293 294 293 293 292 292 292 292 292 292 292 292 293 293 293 293 293 293 293 292 293 293 292 291 291 291 291 291 289 288 289 288 288 288 288 288 288 287 287 288 288 288 288 289 289 289 288 288 288 288 288 288 288 288 288
305 301 306 304 305 305 302 303 300 302 305 306 305 303 303 302 301 299 299 304 308 302 299 299 299 300 302 302 300 299 298 298 297 297 297 298 298 299 301 297 296 295 295 294 294 293 293 292 292 291 291 291 291 291 291 292 292 293 292 291 292 290 291 291 291 290 291 290 290 290 290 290 289 288 289 288 287 288 287 287 287 286 286 286 287 288 287 286 286 287 288 287 287 287 287 287 287
303 302 305 305 305 302 302 302 301 302 302 302 302 302 303 303 302 296 299 303 305 305 298 298 298 299 300 301 300 299 299 299 298 298 298 298 299 299 300 297 295 294 292 292 294 293 292 291 291 291 291 290 291 290 290 291 291 291 291 291 290 289 290 290 289 290 290 289 289 290 290 289 289 289 289 288 288 287 287 287 286 286 287 286 287 286 287 286 286 286 286 286 286 286 286 286 286
304 305 306 305 305 302 301 301 300 300 302 302 302 302 301 297 296 296 302 305 302 300 298 297 297 298 299 300 300 299 299 299 299 298 298 298 298 298 298 296 294 292 292 292 292 293 292 291 291 291 291 291 290 290 290 290 291 290 290 291 289 289 289 289 289 288 288 288 288 289 289 289 289 288 288 287 287 287 286 286 286 286 286 286 286 286 285 286 285 285 285 285 285 285 285 285 285
304 304 305 305 302 302 300 302 300 299 300 300 300 303 301 296 299 300 301 295 296 297 297 295 296 298 299 299 299 299 299 299 298 299 298 297 297 296 297 294 292 292 292 290 291 292 292 291 291 291 290 290 289 288 289 289 289 289 289 289 289 289 288 288 288 288 288 288 288 288 288 288 288 288 287 287 286 286 286 286 285 285 285 285 285 285 285 285 285 284 284 284 284 284 284 284 285
304 304 303 303 302 302 301 301 300 300 300 299 300 300 300 297 298 299 300 293 294 298 297 295 294 297 298 298 298 299 298 299 299 299 297 297 296 296 296 293 293 292 291 290 291 291 291 290 290 290 289 289 289 288 288 287 287 287 288 287 287 287 287 287 287 287 287 286 286 286 286 286 286 286 286 286 286 285 285 285 285 285 284 284 285 285 284 285 284 284 284 284 284 284 283 283 284
304 304 300 302 302 301 302 303 301 300 301 299 300 299 298 296 296 303 297 293 294 296 297 296 295 296 296 297 297 297 297 298 297 297 298 299 299 296 295 296 294 292 291 291 290 290 290 290 289 289 289 289 288 288 287 287 287 286 286 287 286 286 286 286 285 285 284 284 284 284 284 284 284 284 285 285 285 285 284 284 284 284 284 284 285 285 285 285 284 283 283 284 284 284 284 283 284
303 302 301 299 300 299 299 299 299 299 301 300 299 291 297 300 301 302 294 295 294 295 297 298 296 295 295 295 295 296 296 296 296 296 297 298 298 296 296 296 295 293 291 290 289 289 289 289 289 289 289 288 288 288 287 286 286 286 286 286 285 284 284 284 284 284 283 283 283 283 284 284 284 283 284 284 284 284 284 284 284 283 284 285 285 285 284 285 284 284 284 284 283 284 284 284 283
299 300 299 297 295 294 297 300 299 299 298 298 300 291 295 299 302 298 293 295 296 299 302 301 298 296 295 295 294 295 296 296 296 296 296 297 298 296 296 296 294 294 292 290 289 290 289 288 288 288 288 288 287 287 286 285 285 286 285 285 284 284 283 283 282 281 281 281 281 280 281 281 281 282 282 283 284 284 284 284 284 283 284 284 284 285 284 284 284 284 284 283 284 284 284 284 284
298 295 293 295 293 296 295 298 299 297 296 298 299 293 295 300 302 294 292 292 293 298 301 301 300 298 296 295 294 295 295 296 296 296 296 296 297 296 295 295 294 293 291 290 289 289 288 288 289 288 288 287 287 287 286 286 285 285 284 283 283 282 281 280 280 280 280 280 280 280 281 281 281 282 282 283 283 283 282 283 283 283 282 282 283 283 284 283 283 283 283 284 282 282 283 282 283
296 294 292 292 294 294 295 297 298 297 297 297 298 293 298 297 299 293 290 293 293 296 299 301 301 300 298 296 295 295 295 295 295 295 295 296 297 296 294 295 293 293 292 290 289 288 287 288 288 288 287 287 287 286 285 285 284 283 283 282 281 281 280 280 280 280 280 280 280 280 280 280 280 280 280 281 281 281 281 280 280 281 281 281 281 281 282 282 282 282 281 282 284 282 282 282 282
293 295 291 295 292 293 291 295 296 298 297 296 298 294 296 299 302 300 290 294 294 296 299 301 301 301 301 299 297 295 295 295 294 294 294 295 296 294 294 294 293 292 292 290 289 288 287 287 287 287 288 288 287 286 284 283 283 282 282 281 281 280 279 279 279 279 279 279 279 279 279 279 279 279 280 280 280 279 279 279 279 279 280 281 280 280 279 281 282 281 280 281 282 282 282 282 282
291 291 291 291 292 292 292 292 296 296 297 295 297 296 296 298 301 302 303 296 296 298 299 301 302 303 302 300 299 297 296 296 296 297 295 295 294 294 294 294 293 292 291 290 289 288 287 287 287 287 287 287 286 285 284 283 282 281 280 279 279 278 279 279 279 279 280 280 280 280 280 280 279 279 279 280 279 279 279 279 279 279 279 279 280 279 279 280 281 281 281 280 281 281 282 283 282
291 291 291 291 288 290 291 294 296 296 295 295 295 293 294 297 299 301 302 303 298 299 300 301 301 302 302 301 301 300 298 297 299 297 296 295 294 293 293 293 292 292 291 290 289 288 287 287 287 287 286 286 285 284 283 282 281 280 279 278 277 278 278 279 280 280 280 280 280 280 280 280 279 279 280 280 280 279 279 279 279 279 279 280 280 280 280 280 280 281 281 281 280 279 281 281 282
292 292 291 290 291 291 294 294 295 297 294 293 294 295 295 296 297 299 301 302 300 299 299 299 300 301 301 301 300 301 300 299 299 296 294 294 293 293 293 292 292 291 290 290 289 288 288 287 287 286 286 286 284 283 282 282 280 280 280 278 278 279 278 279 278 279 279 280 280 280 280 279 279 279 279 279 279 278 279 279 279 279 280 280 280 280 281 281 280 280 280 281 280 279 279 280 281
293 292 292 290 292 289 293 293 292 297 292 292 295 293 293 295 297 299 300 300 298 299 299 299 299 300 301 301 301 301 301 301 296 294 293 293 292 292 292 291 291 289 289 289 289 288 288 288 288 287 286 285 284 284 283 282 282 282 281 280 279 278 278 277 277 278 278 279 278 279 279 279 279 279 279 279 279 278 278 278 278 278 278 279 279 278 278 279 279 279 279 278 280 280 279 280 280
293 291 291 290 291 293 294 294 292 293 293 291 294 291 292 295 296 298 298 298 299 300 301 301 300 300 301 301 302 301 300 298 296 295 293 291 291 291 290 290 290 290 289 289 289 289 288 288 288 288 286 285 285 284 283 282 282 282 280 279 278 277 279 279 279 279 278 277 277 278 279 278 277 278 278 278 277 277 277 277 277 277 277 279 277 277 278 278 278 279 279 278 277 279 278 278 277
292 291 289 287 292 288 287 291 290 292 292 291 292 289 291 295 297 297 298 299 299 301 301 300 301 300 300 301 302 301 299 298 297 295 291 290 290 289 289 289 289 289 289 288 288 288 288 288 288 287 286 285 285 284 284 283 281 280 281 280 279 279 278 278 277 277 277 277 277 277 277 277 277 277 277 277 276 277 277 277 278 278 278 279 278 277 277 277 277 278 279 279 279 276 275 274 276
292 292 291 290 291 291 290 291 291 293 293 292 291 290 291 295 294 296 298 298 297 299 299 299 300 301 301 301 300 300 299 299 298 296 292 289 288 288 288 289 289 288 288 288 288 287 287 287 287 287 286 285 285 284 284 282 281 280 279 279 279 278 278 277 276 276 277 277 277 277 277 277 277 277 277 277 276 276 277 277 277 277 277 277 276 276 276 277 278 277 277 277 277 276 274 274 275
291 293 292 292 293 292 292 291 289 289 289 291 290 285 287 292 292 294 297 295 295 297 296 298 300 300 299 297 298 299 299 299 298 297 294 290 289 288 288 288 288 287 287 288 288 288 288 287 287 287 286 286 285 285 284 282 280 279 278 277 276 276 276 275 275 275 275 276 276 277 277 276 276 276 276 276 276 275 275 275 275 275 275 275 276 276 276 275 274 274 274 275 275 277 277 276 276
288 290 294 294 293 292 292 289 289 285 284 289 291 284 282 291 292 294 295 295 295 298 298 298 299 299 296 297 298 298 298 297 296 296 294 290 289 288 287 287 287 287 287 288 288 288 287 287 287 287 286 285 285 285 284 282 281 279 278 278 279 277 277 277 278 278 277 277 277 276 275 275 275 275 275 275 275 274 274 273 273 274 274 274 274 274 273 273 273 273 274 275 277 278 278 277 276
287 291 291 293 292 290 290 290 289 288 291 291 289 289 284 284 290 295 294 294 295 296 298 299 300 298 295 295 295 295 295 295 295 294 293 291 289 288 287 287 287 287 288 288 287 287 286 286 287 286 286 285 285 285 283 282 281 280 279 278 278 278 278 278 277 277 277 276 275 275 275 274 274 274 274 274 274 274 273 273 273 273 273 273 273 273 273 273 274 274 275 276 277 277 278 278 277
290 288 291 290 291 290 290 290 289 289 286 284 287 290 284 284 290 291 293 290 292 294 296 298 299 297 294 295 294 292 292 292 292 293 292 291 289 288 288 288 288 288 288 287 286 286 286 286 286 286 286 285 285 284 283 282 282 280 279 279 278 279 279 279 278 278 276 276 274 275 274 274 274 274 274 274 273 273 273 273 272 272 272 273 273 273 273 273 273 273 274 274 275 276 277 278 277
291 290 291 291 291 290 290 289 288 287 285 281 286 289 283 284 290 291 291 291 292 294 297 298 297 297 296 295 294 292 290 290 290 291 292 291 290 289 289 289 287 287 287 287 287 286 286 286 286 285 285 285 285 284 283 283 282 281 279 279 279 279 279 279 278 277 276 275 274 274 274 274 273 273 273 273 273 273 273 272 272 272 272 272 273 273 273 273 273 274 274 275 275 275 276 276 276
291 292 292 291 290 289 289 289 288 286 280 283 287 288 287 281 288 291 289 291 293 296 296 297 298 298 296 294 293 293 291 290 289 290 290 291 290 289 288 287 287 287 286 286 286 286 286 285 285 285 285 285 285 284 284 283 282 282 281 280 280 279 279 279 277 277 276 275 275 274 274 273 273 273 272 272 272 272 272 272 272 272 272 273 273 273 272 272 273 274 274 275 275 275 275 275 275
292 291 290 290 287 287 287 286 287 280 279 285 287 288 288 279 286 289 293 291 291 293 294 295 296 297 297 296 294 292 290 290 289 289 289 289 288 287 287 286 286 286 285 285 285 285 285 285 285 284 285 284 284 284 283 283 282 282 282 281 281 281 280 279 278 277 276 275 275 274 274 274 273 273 272 272 272 272 271 271 272 272 272 272 272 273 273 273 273 273 273 273 274 274 274 273 273
290 290 289 284 282 283 279 281 277 279 279 283 283 285 283 283 288 292 293 294 294 295 296 296 296 296 298 297 296 293 291 289 288 289 289 288 288 287 286 286 286 285 284 284 284 285 285 285 284 284 284 284 284 284 283 283 283 282 282 282 281 281 281 280 279 278 277 276 276 275 273 273 273 272 272 271 272 272 271 271 271 271 271 272 272 272 272 272 272 272 272 272 272 272 272 272 272
288 287 286 283 278 278 275 279 280 279 284 283 284 286 282 288 290 294 294 296 296 297 296 296 296 295 296 296 295 293 292 290 289 289 289 289 288 287 286 286 285 285 285 284 284 284 284 284 284 284 284 284 284 283 283 282 282 282 282 282 282 281 281 281 280 279 278 277 276 275 274 274 273 272 272 272 272 271 271 272 272 271 272 272 271 271 271 271 271 271 270 270 271 271 271 271 271
288 292 289 285 283 278 274 279 276 279 281 281 284 281 280 282 288 290 291 291 290 291 291 292 292 293 292 291 291 291 290 290 289 289 289 288 287 287 287 286 286 285 285 284 284 284 284 283 283 283 284 284 283 283 283 282 282 282 282 282 282 282 281 281 280 280 279 278 277 276 275 274 274 273 273 273 272 271 271 272 272 271 271 271 271 270 269 269 270 270 270 269 270 270 270 270 269
289 290 290 285 283 287 279 283 280 280 281 281 280 280 288 288 292 291 292 292 292 290 291 291 293 291 291 291 292 293 293 291 290 289 289 287 287 287 287 286 286 285 285 284 284 284 283 283 283 283 283 284 283 283 282 282 282 283 282 281 281 281 281 281 281 280 280 279 278 277 276 275 275 274 273 272 272 271 271 271 271 271 271 271 270 270 269 269 269 269 269 269 269 269 268 269 269
287 287 284 287 290 288 284 284 282 281 280 277 286 284 287 292 293 293 292 291 292 293 294 294 295 294 294 293 294 295 293 292 291 290 289 288 287 286 286 286 286 285 285 284 284 284 283 283 283 283 283 283 283 283 283 283 283 282 282 281 281 281 281 280 280 280 279 279 278 278 277 276 276 274 273 273 272 271 272 271 271 271 271 270 269 269 268 269 269 269 268 268 268 268 268 268 269
288 283 287 288 290 289 285 278 281 279 276 279 284 282 284 286 283 289 290 290 291 292 293 293 292 293 293 295 295 295 294 293 292 290 289 288 287 286 286 286 286 285 285 284 284 284 284 283 283 282 282 282 283 283 283 283 282 282 281 281 281 281 281 280 280 280 280 279 278 278 278 276 276 275 274 273 272 271 271 272 271 271 271 270 269 269 268 268 268 268 268 268 268 267 267 268 268
288 286 291 285 281 280 284 280 273 274 275 277 282 284 284 286 286 288 288 289 291 292 292 291 293 294 294 294 295 296 292 292 291 290 289 288 287 286 286 285 285 285 285 285 285 284 284 283 283 283 282 283 283 283 283 283 283 282 281 281 281 280 281 280 280 280 280 279 278 278 277 277 276 275 274 273 272 271 271 271 271 271 270 270 270 269 268 268 268 268 267 267 267 267 266 267 267
290 291 287 288 286 284 281 281 280 280 275 276 278 283 280 288 289 291 289 290 291 291 292 292 293 294 294 295 295 293 292 292 291 291 290 289 287 286 286 285 285 285 285 285 284 284 283 283 283 282 283 283 283 282 282 282 282 282 281 281 281 281 281 280 280 279 279 278 278 278 278 277 276 276 275 274 273 271 271 271 271 270 270 270 269 269 268 268 267 267 267 267 266 266 266 266 266
284 284 284 285 285 285 284 282 280 280 277 276 276 276 282 288 291 290 290 291 292 292 292 293 293 294 295 294 292 292 292 292 292 292 291 289 287 287 286 286 286 285 285 284 284 284 284 283 282 282 282 282 282 282 282 281 282 281 281 280 280 280 280 280 279 279 279 279 278 278 278 277 277 275 275 273 272 272 271 271 270 270 270 269 268 268 267 267 267 267 267 267 266 265 264 265 265
288 286 284 286 283 279 277 276 283 280 280 275 276 274 283 289 289 292 291 292 292 293 293 293 294 294 294 292 292 292 292 293 293 291 289 288 288 287 286 285 284 284 283 283 283 283 282 282 282 282 282 281 281 281 281 281 281 281 281 280 280 280 280 280 279 279 278 278 278 277 278 277 275 275 275 273 273 272 272 271 270 270 270 269 268 267 267 267 266 266 265 265 265 264 263 263 264
Wind_Speed
6 4 4 2 2 3 4 2 6 4 2 6 3 5 3 2 1 5 4 3 3 3 2 1 1 3 4 2 6 6 1 5 5 5 0 3 1 2 5 9 10 10 10 11 12 13 15 18 19 17 19 22 22 18 17 15 12 8 7 4 3 4 7 7 9 19 28 24 26 29 29 26 25 24 23 22 21 19 19 19 20 19 19 19 20 19 18 18 19 20 20 20 20 19 19 20 20
4 5 2 2 1 3 4 1 3 4 4 3 4 1 4 4 3 6 6 4 5 4 3 3 3 2 1 3 3 2 3 4 3 3 2 1 2 1 7 8 9 11 12 11 11 13 14 14 19 15 22 23 23 23 23 23 22 22 21 22 18 9 2 14 19 22 28 30 27 27 28 27 25 24 23 23 22 21 20 20 20 20 19 19 19 19 18 18 19 19 20 19 19 19 19 20 20
4 4 3 3 3 3 4 2 5 4 6 8 4 4 5 6 5 5 4 5 4 6 4 3 1 1 3 2 5 5 1 0 2 3 4 1 2 2 8 9 9 10 11 9 11 12 11 14 14 16 21 23 24 25 25 25 27 27 27 26 26 24 25 24 17 17 23 29 30 30 28 28 27 24 23 23 22 22 21 21 21 20 20 20 20 19 20 19 19 19 19 18 19 19 19 20 20
3 2 3 3 4 2 5 4 4 4 6 1 2 6 6 5 4 5 4 2 3 5 2 2 3 3 3 6 0 0 1 2 2 2 4 1 2 5 7 9 9 8 8 8 10 11 10 15 14 16 19 22 25 26 26 25 26 26 28 28 27 27 25 26 27 21 20 28 29 30 30 29 27 25 23 23 22 21 21 20 20 20 19 20 20 20 20 19 19 19 19 19 19 19 19 19 20
2 1 2 3 4 5 3 2 1 2 6 2 0 7 5 2 6 5 4 3 5 3 1 1 2 2 2 4 1 3 4 5 4 2 2 2 2 4 7 8 8 8 8 10 10 11 11 23 14 16 19 21 24 26 26 26 25 26 28 28 26 26 26 25 26 26 22 27 28 27 27 28 28 26 24 21 21 21 21 20 20 20 20 20 20 19 19 19 20 19 19 19 19 19 19 19 19
2 1 3 2 2 3 1 4 5 5 4 3 2 5 5 3 6 5 6 5 4 2 1 3 3 1 3 2 1 1 4 3 4 4 1 3 3 4 6 6 7 7 9 10 10 9 13 21 18 18 19 21 22 24 25 25 26 26 28 27 28 28 28 26 23 24 26 26 27 26 27 26 25 25 25 22 20 23 22 22 21 20 20 20 19 19 19 19 19 19 19 19 19 20 19 18 18
2 4 3 4 4 2 4 4 2 1 4 3 3 5 4 4 6 7 6 5 2 2 2 2 1 1 4 3 2 3 2 3 4 4 0 2 2 4 5 5 6 7 9 9 9 10 13 22 22 20 20 21 22 22 24 25 26 26 27 27 28 29 28 28 27 25 25 28 28 26 27 25 25 25 25 22 21 21 22 21 19 19 19 19 20 20 20 19 19 19 18 18 18 19 19 18 18
1 5 1 5 3 3 2 1 1 1 3 1 3 2 3 5 6 5 7 4 4 4 4 2 2 3 2 1 2 6 2 2 2 3 2 0 2 3 4 5 6 7 9 9 9 9 13 21 23 18 20 21 22 23 23 24 25 25 26 28 28 28 28 26 26 25 26 27 27 26 25 24 24 25 23 22 20 20 21 20 18 17 17 18 19 19 20 19 18 18 16 16 17 18 18 18 18
2 1 0 3 3 1 2 2 1 2 1 3 2 1 3 5 5 5 6 2 1 3 1 4 3 4 3 3 4 4 5 5 4 4 2 1 2 3 2 5 6 6 8 8 9 9 10 18 20 21 19 18 19 21 22 23 24 24 23 23 24 24 24 24 23 24 22 23 23 24 24 23 22 22 21 20 19 19 19 19 19 18 17 18 19 19 19 19 18 16 15 16 17 17 18 18 18
2 3 3 0 0 3 1 2 3 2 2 2 2 2 3 5 5 2 5 3 3 1 3 2 4 8 3 5 3 4 5 8 5 4 3 1 1 2 4 4 5 6 7 8 7 8 9 14 19 21 20 20 19 17 19 20 21 22 23 23 24 24 24 23 22 23 21 22 23 23 23 22 21 21 20 19 18 19 18 18 17 17 16 17 18 19 19 18 16 15 15 16 16 17 17 18 18
2 1 2 4 2 2 4 2 3 2 3 3 4 5 4 5 5 4 4 1 2 3 4 4 5 9 4 4 1 5 3 8 7 6 4 2 2 3 3 3 4 5 6 7 7 7 8 9 14 18 20 20 17 17 17 18 20 21 21 21 21 21 21 20 20 21 22 21 22 23 22 20 20 21 21 20 19 17 17 17 18 17 17 17 18 19 18 17 16 16 16 16 16 16 17 17 18
3 2 3 2 3 2 1 1 3 2 3 4 5 7 5 7 5 4 6 5 6 6 6 8 1 2 4 3 3 4 6 7 7 4 4 3 2 4 3 2 4 4 5 5 6 7 8 7 8 12 18 19 20 17 17 18 19 18 18 19 20 20 20 21 21 22 22 21 21 21 21 21 22 22 22 21 19 18 18 18 18 18 17 17 18 18 17 16 16 17 16 16 17 17 17 17 17
2 1 2 3 1 2 2 2 2 1 3 7 6 7 5 7 8 5 3 3 2 4 6 12 3 3 3 2 4 4 6 8 6 5 4 3 3 3 2 3 3 4 4 4 6 6 7 7 7 8 11 15 16 19 19 18 18 19 19 21 21 20 21 20 20 21 22 22 21 22 21 20 21 22 22 21 20 19 18 18 19 19 18 17 18 17 16 16 16 17 16 16 16 17 18 17 17
3 1 3 1 1 1 2 2 2 4 5 3 5 7 7 5 6 1 2 4 7 6 3 3 3 2 7 2 4 4 7 9 8 6 4 4 3 3 3 2 3 3 4 3 4 5 5 5 6 6 7 8 10 13 17 19 19 18 17 18 19 20 21 20 20 20 19 19 19 20 21 21 21 20 20 20 20 19 19 18 17 17 17 17 17 17 16 16 17 17 17 17 17 17 18 17 17
1 1 0 2 2 3 2 3 5 5 3 6 6 8 6 2 1 2 6 7 3 5 4 1 4 3 1 6 3 2 8 10 8 6 5 4 4 4 4 3 3 3 3 3 4 4 4 4 5 5 6 6 7 8 9 13 16 16 17 17 17 18 18 17 18 18 18 19 19 18 18 19 19 19 19 18 18 19 18 18 17 17 17 17 17 17 16 16 16 16 17 17 17 18 18 17 17
2 2 0 3 3 4 4 3 2 3 3 5 6 4 7 3 2 3 3 3 1 1 4 4 8 5 4 3 4 5 8 10 8 7 6 5 5 4 4 3 3 3 2 2 3 3 4 4 4 4 4 5 5 6 8 9 12 15 13 14 15 15 16 17 16 16 15 15 16 17 17 15 16 15 18 15 17 17 17 15 16 16 17 17 17 17 17 16 16 16 16 17 18 18 18 18 17
1 2 3 2 4 5 5 5 8 3 5 5 6 7 9 6 4 2 2 2 5 4 8 5 8 4 5 2 4 6 8 8 8 8 7 6 5 4 4 4 3 2 1 2 2 2 3 3 4 4 4 5 5 5 5 6 6 8 9 12 13 13 12 13 14 14 13 12 12 11 10 10 9 10 11 11 14 12 14 15 15 17 16 17 17 17 17 17 16 16 16 16 16 16 18 18 18
3 3 3 5 1 5 6 6 8 3 2 7 8 9 8 7 5 3 3 6 8 3 7 7 8 8 5 3 5 6 8 9 9 9 9 7 5 5 5 4 4 4 3 3 2 2 2 3 3 4 4 5 4 3 3 3 4 6 6 6 6 7 8 8 7 7 7 8 8 7 6 7 7 8 9 9 10 11 12 14 14 15 16 16 17 17 16 16 16 16 16 16 14 13 11 7 10
2 2 3 4 2 2 2 2 7 2 4 4 6 8 9 3 7 6 6 6 8 8 11 10 11 11 10 8 7 8 9 9 9 10 11 11 7 8 6 5 5 5 4 4 3 3 2 3 3 4 5 5 5 4 3 4 5 4 5 5 5 6 6 6 6 6 5 5 5 5 5 6 6 6 6 7 9 13 12 13 14 14 15 16 17 17 16 16 15 15 15 14 13 11 7 6 6
2 4 4 2 2 3 2 2 4 2 2 4 5 6 7 3 2 6 7 5 5 10 7 8 10 10 14 12 12 10 11 10 10 11 12 12 8 8 7 7 6 6 5 4 4 3 3 3 3 3 4 4 4 4 4 4 4 4 4 4 4 3 4 4 5 5 5 4 4 4 5 5 6 7 10 10 9 8 9 11 12 13 13 12 12 10 12 12 14 14 13 10 8 5 6 6 6
2 4 3 2 3 3 4 2 3 2 1 1 3 4 6 5 4 6 3 7 12 12 11 11 9 9 9 13 14 12 12 12 12 12 12 13 12 7 7 7 6 6 5 4 4 4 5 4 4 4 4 4 4 4 4 4 4 4 4 3 3 3 3 4 4 4 4 5 4 4 5 5 5 6 5 4 4 5 5 5 5 4 4 6 6 6 5 5 5 5 5 6 5 6 6 6 5
2 2 4 1 2 2 4 2 3 2 1 2 3 5 3 5 4 9 8 11 9 1 1 4 8 3 6 12 13 12 13 13 13 13 14 14 14 11 7 6 5 5 5 5 6 5 6 5 5 4 4 4 4 3 3 4 3 3 4 3 3 3 3 3 4 4 4 4 4 4 5 4 4 4 4 4 5 4 4 4 4 4 4 4 3 4 4 4 5 5 5 6 5 6 6 6 5
3 3 0 1 2 1 3 1 2 2 3 4 4 2 3 5 4 6 9 16 8 6 4 3 3 3 1 8 12 13 14 14 14 15 14 14 14 14 9 7 7 7 6 6 6 5 6 6 5 5 5 4 3 3 4 3 2 3 3 3 3 3 3 3 3 3 4 5 5 4 4 4 4 4 4 4 4 3 4 3 4 3 3 3 3 4 5 5 5 5 5 5 5 6 6 6 6
4 1 3 4 1 2 1 2 2 2 3 3 2 2 5 3 8 3 8 14 15 4 3 4 3 2 4 9 11 13 14 15 15 14 13 13 14 14 11 8 7 6 6 7 7 6 6 7 7 6 5 5 4 4 4 4 3 2 3 3 2 2 2 3 3 3 4 4 3 3 3 4 4 4 5 5 4 4 4 4 4 4 3 3 3 4 4 5 5 5 5 6 6 5 6 6 6
3 1 3 4 2 2 2 2 3 2 1 1 2 4 4 4 5 4 15 15 13 7 5 3 2 3 5 7 10 10 11 12 13 13 12 11 12 12 12 7 7 7 8 8 7 7 7 7 8 7 6 6 4 4 4 3 4 3 3 3 3 3 2 3 3 3 3 3 4 3 3 3 3 4 4 4 4 5 4 3 3 3 3 3 4 4 4 4 5 4 4 4 4 5 5 5 5
1 3 2 3 3 3 3 4 3 3 2 3 4 8 3 2 2 11 21 12 3 3 4 4 4 6 7 8 9 10 10 12 12 13 13 11 11 14 15 11 8 9 9 8 8 7 7 8 9 8 7 6 5 5 4 4 4 4 3 3 3 3 3 3 4 3 3 3 3 3 3 2 3 3 4 3 4 5 5 4 4 3 4 3 4 4 4 4 4 4 5 5 5 5 5 5 4
1 2 1 2 1 2 3 4 4 3 3 5 6 7 4 4 1 10 4 3 2 4 5 4 6 9 9 8 8 9 10 11 12 11 11 12 12 14 14 11 11 10 9 9 8 7 8 9 9 8 8 6 5 5 4 4 4 4 4 3 3 3 3 3 3 3 3 3 3 3 3 3 3 3 3 3 3 4 4 4 5 4 4 4 3 4 4 5 4 4 4 4 4 4 4 4 4
1 3 3 3 1 3 3 2 4 3 4 6 4 8 3 4 3 14 3 4 2 4 5 6 7 8 8 9 8 8 9 9 9 12 15 16 13 13 15 12 12 11 11 11 8 8 9 10 9 9 8 7 7 6 4 4 4 4 4 3 3 3 3 3 3 2 2 3 3 3 3 3 2 3 3 3 3 3 4 5 5 5 5 4 3 4 5 5 5 5 5 5 5 5 5 4 4
4 3 5 2 2 5 6 5 3 5 2 5 3 9 12 10 11 16 4 4 3 3 5 7 8 8 8 8 8 8 9 9 10 12 14 13 11 11 14 13 12 12 8 10 9 10 10 10 9 9 9 9 8 7 6 5 4 4 4 4 4 3 3 3 3 3 2 2 3 3 3 4 3 3 3 3 3 3 4 5 5 5 4 4 4 5 6 5 5 5 5 4 5 5 5 5 4
3 3 3 5 5 8 4 1 1 4 2 4 3 9 4 12 19 4 5 4 3 5 8 8 7 7 7 8 8 9 9 10 13 13 12 12 12 12 14 13 14 11 9 9 10 11 9 7 7 7 9 9 9 7 6 5 5 4 4 3 4 4 3 3 3 3 3 2 2 3 3 3 3 3 4 4 3 4 4 5 5 5 5 5 5 4 4 4 4 5 5 4 4 4 5 4 4
3 1 2 4 4 3 4 2 5 6 3 4 4 9 8 3 6 7 4 4 6 7 8 7 7 7 7 8 9 10 11 12 13 13 14 13 12 11 13 12 14 13 9 11 13 13 12 9 8 7 9 9 9 8 7 6 5 5 4 4 4 4 3 3 3 2 2 2 3 2 2 3 3 3 4 4 4 4 4 5 5 5 5 4 4 4 4 4 4 4 4 4 4 4 4 4 4
0 3 5 2 5 2 3 5 7 6 3 3 5 10 12 12 7 6 4 4 3 7 8 7 7 7 8 7 9 10 11 11 13 14 15 15 14 12 13 14 14 13 13 12 12 12 12 11 10 9 11 10 10 9 8 7 6 5 4 4 4 4 4 3 3 3 2 2 3 4 4 4 4 4 4 3 4 3 4 4 4 4 5 3 4 4 4 4 4 4 3 3 4 4 4 4 4
1 6 7 4 4 4 7 5 2 2 4 4 10 9 3 4 4 2 3 4 3 5 8 9 10 9 8 8 8 9 9 11 12 15 16 15 14 13 12 14 14 14 13 13 13 13 12 12 11 11 12 11 10 10 8 7 6 6 5 5 5 4 3 3 3 3 3 3 3 3 4 4 3 3 3 2 2 3 3 4 4 4 4 4 3 4 4 4 4 4 3 1 2 4 4 5 4
5 3 7 5 7 3 4 4 4 4 5 6 11 9 14 12 10 5 6 6 4 8 12 15 13 10 9 7 8 9 10 10 14 15 17 16 12 14 12 12 13 13 13 13 13 13 13 12 11 10 11 11 10 9 9 8 6 6 5 5 5 4 4 3 4 3 3 2 2 3 4 4 4 4 4 3 3 3 3 4 4 4 4 4 4 4 4 3 4 4 5 3 3 4 4 5 5
3 3 5 6 6 9 10 6 3 6 5 9 9 14 19 17 15 17 15 9 8 11 13 16 17 14 10 10 10 12 11 12 15 12 13 15 14 14 13 13 13 13 11 14 13 12 11 11 10 11 11 11 10 9 9 8 7 6 5 5 5 4 4 3 4 4 3 3 3 3 4 4 4 4 4 4 4 4 4 4 4 4 3 3 4 5 5 4 4 4 5 5 3 2 3 3 4
6 5 7 5 8 5 5 5 3 6 6 9 12 15 18 17 15 15 16 11 10 14 15 15 17 15 13 12 12 12 13 15 10 6 11 12 13 13 13 12 12 12 12 13 14 13 13 12 11 11 11 11 10 9 9 8 7 7 7 5 5 5 5 5 5 4 4 4 3 3 3 3 4 4 4 4 4 4 4 5 5 4 4 4 5 6 5 5 6 6 6 6 6 5 3 3 4
2 2 4 9 8 11 3 5 2 4 6 14 15 17 21 19 17 16 14 15 10 12 15 16 15 15 13 12 14 15 15 15 5 8 10 13 14 13 13 12 13 14 13 14 15 15 15 14 13 14 12 12 10 10 9 9 9 8 6 7 7 7 6 6 5 4 4 4 6 5 4 3 4 4 4 4 4 4 4 4 5 4 3 3 4 5 5 6 6 6 6 5 6 6 4 4 4
7 9 9 10 8 11 5 6 5 3 5 9 3 14 22 19 16 16 14 15 22 18 17 20 20 17 14 16 17 16 15 5 7 6 9 11 11 14 13 12 14 16 16 16 17 16 16 15 15 13 12 12 12 11 9 9 8 8 7 7 6 7 6 6 6 5 5 4 5 5 5 4 5 5 5 4 5 5 5 5 5 5 4 4 3 4 5 5 6 6 7 6 4 5 4 5 5
6 8 8 8 9 7 11 8 2 3 5 11 7 14 21 18 16 15 15 19 19 19 18 18 14 16 16 16 15 14 9 10 7 9 10 10 13 14 13 13 14 16 15 17 16 16 16 15 14 13 12 12 11 11 9 9 8 6 5 5 5 5 4 4 4 5 5 5 5 5 4 5 5 4 5 4 4 4 5 5 5 5 4 4 5 5 5 6 6 7 8 6 7 3 4 2 3
7 7 8 10 2 2 5 4 2 4 5 9 8 15 20 18 15 18 20 19 17 15 14 15 15 18 20 18 11 8 9 9 11 11 12 11 12 13 13 13 14 14 14 15 16 17 14 14 14 14 12 12 11 11 9 8 7 7 4 5 6 5 5 5 4 5 5 6 6 6 5 5 6 5 5 5 4 5 6 5 5 5 5 5 5 5 6 6 6 5 6 6 6 7 4 2 2
8 10 9 8 6 8 8 5 4 3 8 6 9 12 18 12 8 7 6 7 10 13 13 13 15 16 16 13 9 11 13 10 10 10 10 11 13 14 15 14 13 14 15 15 16 15 11 15 14 14 12 12 10 11 11 9 9 8 6 6 6 5 4 5 5 5 7 7 6 7 8 8 7 6 6 6 5 6 5 5 5 5 5 4 4 5 5 6 6 5 6 6 6 5 6 4 3
7 10 11 12 10 11 9 3 6 7 7 4 4 8 12 5 3 5 4 3 6 7 7 12 13 13 8 9 11 10 9 10 10 10 11 12 12 12 13 13 14 13 14 14 14 15 14 13 14 14 11 11 11 13 13 10 10 10 9 9 8 8 7 9 10 11 10 10 9 6 7 7 7 6 6 6 6 5 5 5 5 5 5 5 5 5 4 4 4 4 5 4 4 4 6 6 5
7 4 12 14 12 8 8 6 1 6 6 2 3 5 15 13 15 11 9 10 14 9 9 15 15 4 2 5 6 6 6 6 6 6 6 10 11 12 13 14 15 15 15 13 14 15 15 13 14 14 12 11 11 12 14 11 11 10 11 10 9 9 9 8 6 6 7 7 7 8 7 7 7 7 7 6 6 5 5 5 5 5 4 4 4 4 4 4 4 5 4 5 5 5 6 6 7
8 3 3 5 6 7 7 5 6 9 4 4 6 5 10 18 15 5 5 8 8 10 13 15 12 2 3 3 5 6 4 3 4 6 8 8 11 13 14 15 14 14 13 13 13 14 16 15 15 15 12 12 11 12 14 12 11 11 11 10 8 9 9 7 9 7 6 6 8 8 7 7 8 7 7 7 6 6 6 6 6 5 5 5 4 4 4 4 4 4 5 4 3 4 5 5 6
1 2 1 4 4 4 3 4 6 3 6 11 6 9 5 9 7 7 9 3 8 12 14 14 6 3 0 3 3 3 4 3 4 5 6 8 10 11 11 12 13 13 12 13 13 13 14 14 15 14 14 13 12 15 14 14 12 11 11 10 10 9 8 7 7 7 7 8 9 8 8 8 8 8 7 8 8 7 6 6 6 6 6 6 5 4 4 4 6 5 5 4 5 5 5 4 6
3 5 6 5 4 4 2 4 4 2 5 13 7 11 6 14 20 3 3 4 8 9 9 5 4 5 4 2 1 2 2 2 3 5 5 6 8 9 10 9 10 11 11 12 12 12 13 13 15 16 16 13 13 15 15 16 15 12 13 13 14 12 10 8 8 9 9 9 10 10 9 8 8 8 8 8 8 8 7 7 7 7 6 5 4 5 5 6 6 6 6 5 5 6 4 5 5
6 5 4 3 2 2 2 1 1 2 8 16 10 14 10 10 16 4 5 3 3 3 2 4 4 4 5 3 2 1 1 1 2 3 5 5 5 7 8 10 10 11 10 12 12 12 12 14 15 17 17 13 14 16 17 18 17 16 15 16 17 15 14 12 11 11 10 10 10 10 10 9 8 8 8 8 9 8 8 7 7 7 6 6 5 6 6 6 6 6 5 5 5 6 4 5 4
4 3 2 2 3 3 4 2 3 6 12 2 5 10 16 9 9 3 2 3 0 1 4 3 4 6 3 1 0 1 1 1 2 3 4 5 5 6 7 9 10 11 11 12 12 12 13 14 14 17 17 17 15 16 18 18 17 18 17 18 18 17 15 13 14 13 13 13 12 11 9 8 9 8 8 8 9 9 8 8 7 7 7 7 6 5 5 6 6 5 5 5 5 4 4 5 4
4 4 4 5 5 1 5 5 4 10 10 3 1 3 5 18 20 5 5 4 2 4 5 4 4 7 6 2 3 3 2 2 3 3 4 5 6 7 8 9 9 11 12 13 13 13 13 14 16 18 19 18 17 17 18 19 18 18 17 17 16 14 16 15 14 13 12 12 11 11 11 10 9 9 10 9 10 11 8 8 9 8 7 7 7 6 6 5 5 5 5 5 4 5 5 5 5
7 8 7 6 7 7 8 8 3 4 6 3 2 2 10 14 13 12 16 14 8 6 5 6 6 8 10 7 4 5 4 4 5 6 7 6 5 6 7 9 10 10 12 12 13 13 12 12 16 18 19 18 17 17 18 18 19 17 16 16 15 14 15 15 13 13 12 11 10 11 11 11 11 11 11 11 10 11 9 8 8 7 6 6 7 6 6 6 5 5 5 5 5 4 4 5 5
9 5 7 7 5 3 4 5 7 5 2 3 4 2 6 4 1 3 1 3 1 3 0 2 6 6 6 7 8 7 6 5 5 7 7 6 6 8 8 8 9 9 10 11 11 12 12 13 15 17 18 18 18 18 17 19 17 18 16 15 15 13 14 13 13 12 11 12 11 11 10 9 9 9 9 9 10 11 10 8 9 9 8 7 7 6 6 5 5 4 5 4 4 4 5 5 5
3 1 2 2 9 3 8 3 3 3 5 7 7 7 5 9 4 4 2 1 3 2 1 4 4 1 4 6 5 5 5 3 4 6 6 7 8 8 8 8 9 9 10 10 12 11 12 12 13 15 15 14 15 17 17 17 17 15 17 18 17 15 13 12 11 11 11 12 12 11 11 11 9 9 8 9 10 11 10 10 9 9 9 8 8 8 7 6 7 6 5 6 6 4 5 6 5
5 6 7 6 4 6 7 5 3 1 4 12 7 9 13 11 15 6 3 2 8 6 8 7 6 3 4 6 6 6 4 4 5 5 4 5 6 7 8 9 8 9 10 11 12 11 12 12 12 14 14 14 15 16 15 14 15 15 17 17 16 16 15 15 13 14 13 11 11 11 11 11 10 9 9 9 10 11 10 10 10 10 9 8 8 8 8 7 7 6 6 6 6 5 5 6 5
7 6 4 4 1 4 2 6 1 3 10 9 6 12 14 10 10 3 4 5 7 3 5 1 6 7 5 5 4 5 4 5 5 5 5 6 6 6 6 6 8 8 9 10 12 12 12 13 13 13 14 17 16 15 16 15 15 16 15 16 16 16 15 15 14 13 12 12 12 11 10 10 11 10 9 8 10 11 10 11 10 10 10 9 9 8 8 8 8 6 6 6 5 6 5 5 5
3 1 4 4 4 5 3 1 4 7 9 7 8 13 13 16 12 4 4 4 4 5 3 4 5 7 4 3 6 4 2 4 4 4 4 4 5 6 6 7 7 9 10 11 11 12 11 12 14 15 17 17 16 14 14 14 14 12 12 14 16 15 14 13 13 13 12 13 13 12 12 11 10 11 10 10 11 11 11 11 11 10 10 11 10 10 10 8 9 7 7 6 6 6 6 6 6
2 1 2 2 2 6 5 4 2 2 7 7 7 8 14 10 6 4 2 5 4 6 4 5 6 6 3 4 5 4 5 4 4 4 4 4 4 5 7 8 9 10 10 10 11 11 15 15 14 15 14 14 15 16 15 15 14 13 12 12 14 14 14 14 14 14 14 14 14 14 13 12 12 10 11 12 11 12 12 12 11 11 11 11 11 10 10 9 9 7 7 6 7 7 7 6 6
4 4 5 2 3 2 3 2 4 4 4 6 7 11 12 4 2 6 2 8 7 6 5 5 7 7 5 3 2 4 4 4 4 5 4 2 3 5 6 6 6 7 7 8 10 12 12 11 14 14 15 15 15 15 14 14 12 14 14 15 14 14 16 14 14 15 14 14 13 13 13 12 11 11 11 12 12 12 12 12 12 12 12 11 11 10 10 9 9 8 7 7 7 8 7 6 6
8 9 9 11 6 4 5 8 3 3 5 5 4 10 12 5 1 4 1 5 3 6 6 8 10 10 3 1 4 5 4 5 5 4 4 3 3 5 5 4 4 5 7 9 8 8 10 12 11 11 12 13 14 14 14 13 13 13 15 14 15 13 13 13 14 15 15 14 13 11 12 9 10 11 12 12 13 11 12 13 12 12 12 11 10 10 10 9 9 9 8 6 7 8 7 7 6
Wind_Direction
313 316 311 276 259 254 210 133 214 173 223 226 221 205 125 77 28 168 150 140 175 76 40 105 182 191 251 12 356 18 79 296 0 218 237 79 22 20 354 340 330 320 313 309 313 313 313 308 323 54 66 64 65 73 73 66 62 67 66 35 306 254 256 221 153 120 114 109 109 110 108 106 104 106 106 106 106 106 100 97 96 98 96 92 95 90 89 87 85 85 83 82 81 79 77 76 73
320 319 283 221 277 202 174 336 270 179 234 222 213 202 111 137 199 191 163 164 37 117 111 84 114 44 42 306 324 335 151 35 24 62 126 160 10 111 356 343 331 320 317 320 318 320 316 318 343 48 70 70 72 70 69 67 68 70 69 71 65 62 164 160 143 127 120 118 111 108 109 106 105 106 106 105 106 103 100 99 100 99 99 98 96 95 92 88 87 85 83 82 81 81 80 78 76
316 309 174 211 174 307 102 248 233 204 212 226 157 172 118 165 188 159 96 92 94 116 127 101 26 210 228 220 211 245 118 176 149 106 85 150 195 62 352 335 324 319 313 315 321 320 318 319 359 43 70 77 77 76 73 73 73 70 71 70 74 76 85 79 61 93 110 112 107 105 106 104 102 101 104 104 103 99 98 102 96 92 91 93 94 92 92 90 87 83 82 81 79 79 79 78 78
271 293 263 210 152 248 182 203 269 214 225 258 146 144 172 168 130 84 88 82 117 143 161 154 219 61 270 218 35 201 132 146 132 82 147 77 13 340 332 330 323 316 314 322 318 321 330 320 39 50 66 80 82 80 79 76 77 77 76 77 71 73 72 85 87 61 70 88 94 97 98 99 96 96 92 92 92 97 101 97 97 96 95 91 88 87 88 87 83 82 81 78 77 76 76 76 75
253 90 265 253 209 170 209 207 268 248 240 157 45 135 158 139 105 121 124 129 140 166 196 67 233 115 337 321 353 276 82 89 159 161 116 81 32 341 326 330 325 322 329 325 326 326 335 337 43 55 66 70 77 80 81 81 80 81 78 78 78 75 72 73 78 87 75 76 81 87 93 96 100 100 99 97 99 98 93 93 94 93 92 91 87 86 85 85 84 83 81 80 79 77 75 77 77
241 223 55 268 263 23 192 189 196 221 37 339 137 135 135 120 135 138 125 147 148 217 297 239 327 100 211 172 336 335 147 193 121 171 197 84 5 344 339 326 332 329 334 332 336 340 355 1 45 56 69 74 77 81 83 83 81 79 80 80 79 75 74 72 76 84 87 83 85 88 89 92 94 96 96 97 97 95 93 91 89 90 90 89 89 88 86 82 81 82 81 80 80 81 81 80 80
222 180 98 101 123 240 246 220 194 208 86 339 60 111 150 143 126 138 137 144 181 234 199 268 50 234 240 132 182 226 0 63 181 139 198 47 351 358 350 339 330 343 341 342 341 346 355 3 27 57 65 74 80 80 84 85 82 82 82 82 79 79 77 78 75 72 75 78 79 80 85 84 86 87 88 88 89 91 93 91 90 88 88 88 87 86 85 84 83 81 82 84 86 88 88 87 87
96 254 94 222 113 253 206 244 148 272 97 335 19 74 110 143 146 172 158 208 152 215 155 191 271 296 38 339 272 102 156 216 128 110 138 179 26 5 5 358 346 352 351 348 347 356 357 6 13 34 63 69 77 80 83 83 85 85 84 83 83 81 80 78 76 73 73 74 80 81 81 82 84 85 89 90 88 88 89 90 89 88 85 85 84 83 82 81 81 83 85 89 91 92 90 88 85
36 355 212 215 166 112 169 209 78 64 62 173 138 323 341 139 159 166 156 164 355 258 182 193 193 236 94 172 232 96 182 149 156 138 138 127 32 36 28 12 7 350 355 353 2 7 8 6 14 24 46 70 78 84 84 85 89 90 88 89 92 95 97 97 96 95 92 94 92 88 86 85 87 88 88 88 90 89 87 89 88 86 84 85 85 84 83 82 82 83 85 85 86 88 89 88 85
112 296 175 260 109 193 252 158 219 127 152 123 193 166 147 150 141 208 173 224 229 114 190 183 212 256 2 265 174 162 174 172 164 172 164 114 46 65 47 36 16 360 2 3 5 8 10 7 17 23 24 53 62 72 86 93 94 96 97 97 98 98 97 98 100 99 103 101 98 96 100 104 104 101 97 95 92 92 91 90 88 86 85 84 85 84 81 83 85 86 84 82 82 83 83 83 82
194 69 355 210 177 184 227 140 199 121 177 167 218 203 192 168 152 166 194 221 187 211 166 184 219 238 264 257 233 63 110 164 177 180 156 138 96 61 71 45 29 20 13 13 16 19 13 16 18 27 27 31 49 63 77 85 86 89 91 95 95 99 100 102 103 105 100 99 101 104 104 101 102 101 97 94 93 92 94 93 92 89 86 84 83 83 86 88 89 88 86 84 81 80 78 80 80
207 226 200 220 218 267 88 245 159 128 155 189 214 179 186 189 190 213 202 221 189 215 215 186 97 121 221 262 160 136 148 184 192 157 158 142 100 87 69 67 48 33 30 24 26 22 13 14 7 23 35 31 28 50 67 71 81 87 93 94 96 94 95 91 94 97 99 100 100 103 105 105 101 97 94 93 91 92 93 95 95 95 95 92 92 92 93 92 91 87 86 86 84 82 80 78 78
288 215 213 228 46 248 74 211 126 156 209 214 190 171 158 188 205 239 193 223 180 216 237 208 48 260 244 236 69 155 193 192 177 158 162 154 116 106 107 88 68 51 37 39 47 27 25 15 19 23 36 37 23 42 46 59 73 77 78 83 88 92 94 96 95 91 88 94 94 97 94 92 91 94 94 95 96 96 94 93 94 95 97 100 98 97 97 95 92 90 89 90 88 86 83 81 80
254 244 239 219 41 129 192 84 93 192 215 133 170 130 175 199 227 256 152 213 201 212 48 175 199 173 271 306 184 191 200 174 164 163 162 150 129 121 120 121 86 68 61 47 44 47 37 27 30 30 32 33 48 61 55 53 62 78 79 81 82 83 87 88 89 91 94 93 93 91 89 89 92 92 95 99 100 100 97 94 94 99 100 102 104 104 102 99 96 96 95 93 90 87 84 84 79
156 259 108 96 145 197 148 196 182 200 176 156 135 154 167 215 55 205 214 246 196 62 114 209 211 194 84 204 116 144 159 158 163 164 157 148 133 139 131 129 99 79 71 75 51 46 47 40 43 37 36 43 61 77 74 66 69 74 78 82 87 89 91 90 92 94 96 96 95 97 99 99 99 98 98 98 98 98 96 93 96 99 101 101 101 102 101 100 100 98 97 96 94 91 88 85 78
112 178 117 203 177 228 158 195 160 187 176 159 129 148 187 133 176 174 238 307 64 323 180 198 203 239 346 306 61 99 140 155 161 163 165 158 165 162 151 140 124 98 75 77 89 69 50 50 46 53 51 53 67 95 93 86 75 77 84 88 86 93 99 99 99 100 97 96 95 95 96 98 96 94 94 95 96 97 99 103 106 105 105 105 103 102 102 102 100 100 99 97 93 90 85 79 77
223 265 192 178 216 209 149 194 165 195 105 123 133 171 193 197 153 264 18 260 240 192 199 216 198 229 240 356 105 128 146 154 160 167 174 177 175 172 175 160 155 149 133 88 78 97 79 63 76 80 69 67 70 79 82 87 82 87 85 80 86 89 91 95 101 105 106 105 109 107 100 97 93 100 103 104 102 104 106 107 108 105 102 101 98 97 96 97 97 98 96 93 90 84 81 76 73
247 222 231 225 76 211 153 185 184 38 129 148 174 193 210 216 167 175 158 226 235 233 222 229 230 234 242 136 154 147 154 162 171 180 192 190 191 182 188 180 177 174 163 150 120 103 121 99 93 106 99 87 92 81 72 75 82 71 71 77 77 80 84 92 95 95 99 109 103 105 100 102 108 108 107 104 104 104 103 101 100 99 97 94 92 91 91 92 92 90 90 87 86 85 86 87 79
273 153 241 273 175 63 161 139 164 170 89 119 169 193 215 238 160 159 219 205 202 235 232 217 230 233 210 199 177 170 166 177 184 198 201 202 199 195 190 179 184 165 176 167 149 149 137 133 124 114 112 122 111 100 99 95 88 91 81 81 85 83 91 89 91 82 83 88 91 100 101 101 102 103 103 107 109 103 101 99 97 97 93 88 86 86 86 86 86 86 85 84 81 79 77 77 77
67 266 248 248 72 78 130 87 148 65 93 116 158 181 214 179 184 129 230 245 183 241 235 184 225 235 204 190 192 183 183 190 196 203 209 209 210 201 195 188 184 184 172 170 153 152 164 146 138 133 136 143 148 133 140 129 121 116 112 106 98 101 94 94 93 96 91 86 91 91 98 104 103 99 97 99 111 114 100 91 87 85 82 81 84 85 83 81 84 80 77 78 75 71 78 81 82
105 245 266 63 136 152 122 138 76 114 0 93 139 122 209 207 187 188 228 261 242 240 239 249 248 234 194 180 185 185 191 196 201 207 213 215 213 212 207 197 192 177 170 153 160 166 165 163 159 148 151 155 157 152 149 140 139 139 129 122 120 123 114 101 98 93 87 89 84 90 97 107 115 121 133 124 108 108 113 114 108 99 96 94 92 102 104 96 85 83 79 68 72 74 76 75 78
220 7 30 54 147 166 70 83 77 117 49 142 140 192 211 102 189 220 229 246 263 332 99 231 256 328 158 169 181 190 196 201 203 206 212 213 213 210 205 186 166 162 159 177 175 164 172 171 169 153 159 174 162 160 145 121 152 142 137 131 138 128 120 110 112 111 103 89 93 101 104 102 105 115 113 110 104 99 101 93 89 88 90 96 101 102 100 93 89 81 75 73 71 71 71 73 70
245 137 83 148 37 17 60 103 97 184 173 186 190 215 103 202 241 213 233 237 249 69 72 38 39 64 100 163 165 190 200 205 206 210 210 212 213 214 205 198 181 180 179 184 166 170 171 173 167 164 165 162 170 146 139 144 139 130 134 128 143 138 136 130 119 117 107 107 113 120 121 117 115 115 108 103 98 97 91 93 89 82 79 73 64 81 77 73 74 75 74 72 75 77 76 78 77
291 81 133 158 163 59 14 94 131 190 208 210 71 104 233 159 261 122 239 240 248 125 103 78 74 99 143 163 178 189 200 206 211 212 213 216 215 216 211 205 191 178 184 176 175 171 174 174 169 169 169 172 166 160 153 149 132 128 115 129 147 91 127 122 114 103 115 114 115 117 129 136 135 127 122 116 111 102 97 94 104 103 97 91 81 79 83 79 77 78 83 87 86 83 81 80 79
248 216 149 129 183 98 106 134 156 156 126 76 187 215 231 223 281 346 257 251 247 214 151 147 140 160 173 189 187 193 200 209 215 213 213 217 218 217 217 213 192 181 188 181 177 176 174 171 174 178 173 178 167 166 161 152 143 145 150 150 127 132 128 117 104 114 119 117 109 114 125 135 133 127 122 120 121 112 110 108 106 100 100 93 88 83 83 90 88 88 90 87 82 83 84 78 77
357 14 147 151 172 125 133 145 171 182 132 174 205 242 196 202 300 255 256 261 53 109 158 179 198 207 204 206 200 196 202 208 213 212 212 212 215 213 215 210 192 195 191 179 177 179 172 172 179 183 179 177 168 170 168 158 154 147 153 143 127 147 122 111 128 121 110 127 120 103 98 106 115 119 117 121 124 121 117 113 101 90 82 80 82 83 75 80 86 90 86 82 84 84 82 82 89
330 122 187 191 97 222 163 225 161 167 225 177 237 260 224 140 204 277 92 44 211 153 180 181 209 221 213 208 205 204 208 210 209 212 212 211 213 214 214 205 199 196 185 183 183 177 171 176 180 180 180 173 169 179 172 158 150 152 146 143 142 133 122 129 124 120 119 116 109 102 104 95 111 116 120 122 120 122 121 114 104 97 87 73 76 88 84 87 88 85 87 93 92 93 88 85 89
117 157 155 161 198 220 166 191 166 182 206 187 237 273 237 177 195 248 135 143 155 173 183 201 211 221 216 210 207 209 214 213 211 214 215 209 211 209 207 200 195 190 188 187 183 174 172 180 178 177 178 175 178 175 158 156 154 146 144 143 138 125 134 129 122 121 121 101 92 91 93 91 90 100 105 115 129 128 116 106 104 102 99 100 92 94 97 93 94 93 87 88 96 97 99 93 93
134 213 248 177 240 244 189 227 163 205 209 174 184 278 243 180 227 242 128 148 148 195 219 209 217 221 219 213 215 214 215 209 210 216 217 216 212 206 209 201 191 187 190 184 177 175 177 178 178 178 177 174 181 172 165 161 153 148 155 148 138 140 140 129 127 123 111 107 110 110 109 115 116 119 119 110 114 112 112 114 110 108 110 111 107 105 109 113 112 109 104 112 107 109 108 107 105
182 135 309 282 248 260 122 101 150 200 123 168 202 280 257 201 226 192 149 151 163 220 235 220 216 212 217 214 218 221 214 210 215 216 215 216 212 210 210 199 193 187 178 177 176 182 174 176 177 174 180 178 177 172 165 159 158 154 150 145 134 146 132 129 126 127 130 130 122 123 129 125 127 126 131 127 126 123 123 120 124 124 123 126 128 132 127 123 120 123 129 130 127 128 126 128 130
256 100 250 264 291 251 124 169 154 212 108 193 224 258 258 246 184 115 124 182 208 248 246 229 214 212 213 215 217 223 220 215 218 215 218 218 216 213 210 198 192 189 175 179 182 180 175 177 176 176 176 177 169 170 169 163 161 157 154 151 148 147 137 134 127 125 135 140 139 120 128 126 127 136 142 140 143 140 134 130 128 130 132 139 136 133 128 124 125 130 139 131 130 123 125 126 130
184 253 232 162 230 199 137 167 187 239 125 215 196 262 266 268 272 103 122 150 177 251 268 255 236 224 218 216 222 226 228 217 221 221 218 217 217 212 207 202 191 190 187 181 178 177 181 182 177 176 174 176 176 173 170 163 160 154 150 141 137 133 137 138 139 141 147 158 150 150 153 148 143 142 141 151 146 146 140 131 127 123 136 135 129 132 132 125 122 119 115 134 128 126 129 132 130
190 234 266 250 208 270 309 156 228 358 126 207 214 261 319 270 67 55 140 142 194 259 274 267 249 239 228 223 221 228 231 222 220 221 216 212 214 209 207 202 195 192 188 180 177 179 182 181 178 179 178 176 173 168 164 159 156 155 150 145 140 143 147 150 137 147 161 165 164 160 149 140 138 137 138 131 130 138 133 127 124 138 145 138 138 132 122 119 125 122 118 119 139 137 141 140 142
237 174 250 262 255 255 251 119 198 196 226 212 219 246 250 266 279 240 167 189 182 252 267 273 263 243 228 221 224 228 229 227 223 216 211 206 205 203 204 202 197 192 191 186 182 180 180 179 180 182 179 177 172 167 163 158 156 148 144 143 144 148 152 147 151 153 165 166 168 156 148 147 150 150 144 147 134 127 119 125 138 155 154 150 141 135 121 131 135 135 126 121 126 146 146 150 147
249 192 227 244 224 236 264 279 109 193 202 253 237 240 258 258 258 269 268 176 226 250 258 266 270 262 241 226 231 233 231 227 233 217 202 200 200 201 201 199 196 193 191 189 185 182 180 180 178 179 179 176 172 165 159 150 144 141 135 144 150 151 155 159 160 169 167 173 181 160 165 157 147 153 151 150 144 143 141 143 151 159 161 157 143 130 131 136 128 127 130 126 111 93 125 140 145
278 268 276 283 274 228 223 248 147 212 247 241 242 257 268 263 257 258 267 246 222 250 257 261 264 262 254 243 239 236 230 235 231 182 181 187 196 195 196 195 196 195 193 190 188 186 186 182 182 180 183 177 170 164 160 159 160 164 162 160 164 173 172 171 176 178 167 171 160 173 173 169 158 158 166 169 157 155 152 154 154 161 169 169 154 143 148 145 140 138 139 136 129 116 117 133 148
41 250 257 266 266 270 261 248 185 191 273 258 255 259 266 266 267 268 268 277 247 247 257 255 254 257 253 243 238 238 236 239 152 167 179 189 194 195 192 192 194 195 195 192 190 192 191 188 183 185 183 178 172 171 174 171 172 168 171 184 183 175 177 171 175 176 182 176 165 178 177 179 164 163 169 173 165 158 158 150 158 164 173 169 157 151 145 142 147 153 144 146 143 139 137 157 164
253 268 265 267 249 268 265 282 121 186 219 285 237 271 269 269 265 259 261 264 267 255 248 251 252 255 258 252 248 240 240 212 149 180 191 189 192 192 190 192 192 192 196 193 196 194 193 191 190 186 180 181 184 181 175 180 181 179 172 181 169 165 168 174 179 177 181 162 169 177 179 175 179 178 173 181 171 168 159 161 163 164 171 169 143 135 141 147 160 164 159 144 165 163 148 165 165
224 246 262 267 267 283 274 263 98 196 211 271 273 282 280 276 268 255 244 248 254 253 247 256 264 265 260 258 251 245 234 228 196 206 188 189 189 189 192 195 198 200 196 197 197 194 194 194 195 189 184 183 186 182 176 182 177 171 168 154 157 153 175 176 169 160 156 166 173 183 187 174 183 185 177 181 170 170 168 165 169 167 179 164 151 155 161 168 179 178 176 161 150 134 114 134 193
241 228 238 248 316 316 285 130 154 174 218 297 314 295 284 280 254 244 241 240 252 266 263 262 254 255 258 257 264 257 246 231 222 204 192 188 188 189 194 197 198 197 198 198 197 196 195 197 194 190 187 184 184 182 178 172 158 146 133 137 149 160 166 156 145 149 166 175 185 185 193 187 189 187 180 183 180 178 177 180 174 176 174 175 167 165 173 181 183 190 195 181 154 141 150 150 198
218 230 240 258 236 240 235 305 330 261 232 256 279 279 279 271 241 223 239 240 258 261 266 263 256 248 254 268 272 263 260 243 234 214 187 182 188 194 196 196 194 198 199 197 196 195 196 196 193 190 187 186 184 178 174 161 146 144 127 121 123 117 121 157 166 189 191 192 191 188 194 187 190 190 184 188 185 183 183 182 182 176 175 174 175 179 181 188 187 198 194 183 181 161 159 151 174
241 214 227 244 253 260 254 288 322 284 272 131 326 311 282 106 206 208 230 177 224 225 239 254 252 246 238 256 260 262 242 238 241 228 197 186 192 192 195 195 196 199 201 200 196 197 195 194 192 189 188 187 185 179 175 167 168 169 165 167 175 183 189 187 197 195 187 191 194 185 182 183 186 187 185 188 187 182 181 178 182 178 178 177 188 183 173 166 186 193 209 200 173 180 161 159 157
262 250 196 230 244 257 265 260 204 271 276 93 306 314 290 294 278 246 229 241 257 256 231 254 258 201 197 239 258 256 249 234 225 230 199 183 191 193 196 197 198 200 201 195 196 197 196 193 191 189 189 187 184 180 177 175 177 182 185 189 189 190 197 204 198 188 183 185 179 178 180 182 190 186 187 187 186 184 180 181 183 180 177 181 177 163 160 174 178 201 207 205 183 170 176 176 164
254 72 185 208 221 225 235 228 235 272 323 258 178 238 275 299 294 164 177 225 242 248 252 253 254 123 217 252 265 275 281 268 247 228 217 202 194 196 200 200 200 202 195 193 196 195 196 194 190 190 190 189 186 181 181 183 183 186 190 194 198 204 206 199 183 183 171 167 175 178 176 183 185 189 187 184 186 186 183 183 183 179 180 183 174 177 171 173 184 205 216 209 178 179 186 184 168
322 68 102 155 194 216 195 220 264 302 336 289 172 181 244 253 267 117 156 221 230 243 248 253 273 87 201 264 291 307 302 283 258 241 219 205 204 205 205 203 204 199 194 193 195 193 194 195 193 193 195 191 189 184 184 188 189 189 191 196 204 210 207 202 172 177 176 176 178 179 183 182 183 189 190 187 188 187 185 185 181 183 183 181 177 175 171 181 195 194 196 191 185 184 193 191 169
117 123 91 88 92 78 165 256 261 260 287 268 185 177 242 270 276 185 143 223 254 246 251 273 0 330 308 303 41 29 343 296 257 254 246 221 213 210 208 207 198 197 195 195 195 193 195 195 196 195 197 194 190 187 188 191 192 191 195 201 204 204 199 196 181 184 183 180 186 185 185 184 184 184 187 187 186 186 185 184 185 187 183 176 176 174 169 184 193 197 200 201 194 187 178 180 181
121 164 136 120 101 119 116 281 245 276 252 261 180 193 210 277 281 256 178 191 204 250 286 353 350 47 57 68 53 348 335 318 264 250 241 236 222 212 200 203 199 194 195 196 196 196 194 196 195 198 199 196 193 191 191 195 195 199 203 203 205 205 199 194 188 193 187 184 189 187 186 188 184 184 180 186 186 183 182 184 187 185 180 178 180 178 179 185 188 193 200 200 197 190 184 163 155
189 176 198 207 213 136 223 178 174 238 260 277 148 206 208 231 267 135 50 79 197 297 315 354 354 338 3 25 265 207 231 247 249 237 234 220 211 207 204 206 201 198 198 199 198 195 196 198 198 201 202 200 197 195 195 198 198 204 208 207 207 207 201 198 197 195 190 189 189 189 185 183 185 183 182 183 183 183 182 185 185 181 181 180 182 179 178 184 184 182 188 187 189 191 165 155 150
205 192 200 228 250 270 243 169 217 209 242 95 40 141 230 235 247 287 276 276 257 219 240 278 306 302 296 212 232 245 228 247 263 262 248 224 215 206 203 208 203 202 204 201 200 200 202 203 202 203 205 201 201 197 200 201 203 206 207 209 212 209 209 207 203 204 195 191 191 188 183 186 182 184 188 185 186 182 181 181 184 185 186 187 181 177 173 177 178 180 187 190 186 184 177 169 163
193 200 200 216 251 243 256 253 258 300 247 100 103 188 243 268 286 264 261 273 282 215 217 254 269 277 288 308 290 267 260 250 255 252 243 231 214 207 206 203 205 206 205 201 202 203 203 204 205 207 209 203 202 202 202 203 207 207 207 208 208 207 211 210 209 207 200 193 191 192 189 190 188 192 185 188 179 174 183 185 181 183 180 174 171 166 165 171 174 180 174 181 183 184 167 167 149
201 205 201 221 228 182 232 230 243 259 330 92 191 142 242 246 170 54 6 8 295 330 206 297 267 270 290 286 277 279 269 247 235 247 242 220 209 206 206 204 206 207 206 204 204 207 206 210 209 211 212 208 204 204 202 206 206 207 207 207 207 207 208 210 211 209 203 197 196 194 194 192 192 191 186 180 168 175 182 178 182 179 177 173 167 165 164 165 174 173 176 176 183 181 168 164 152
161 145 23 243 235 197 241 310 278 303 294 265 182 217 256 245 76 180 189 239 276 141 284 230 255 191 259 276 283 282 269 269 240 246 240 223 208 204 203 203 204 202 202 204 207 207 211 216 216 219 221 219 215 211 210 207 207 205 206 206 206 206 207 210 211 208 208 200 198 195 196 196 195 187 180 171 172 175 181 180 178 183 176 173 173 172 168 171 174 176 176 183 184 171 172 167 156
155 150 209 213 28 201 256 274 187 346 253 252 245 256 253 264 268 259 214 211 252 252 263 255 257 273 261 277 294 285 288 279 262 247 243 226 214 209 206 203 199 200 199 202 204 207 212 216 218 220 221 222 222 221 221 217 213 209 208 206 203 204 206 209 209 207 204 201 198 199 198 195 188 185 177 172 171 178 181 180 179 179 175 173 170 171 171 174 173 180 182 182 180 174 177 174 170
115 221 204 84 312 356 228 254 223 236 249 267 214 247 273 280 289 83 141 124 125 211 222 298 289 278 278 277 285 296 317 307 292 274 259 251 235 216 209 207 206 205 204 204 205 204 209 213 214 215 216 219 220 219 220 221 218 215 211 207 207 206 207 209 209 208 202 199 200 201 199 191 189 181 172 170 171 178 180 179 180 179 178 177 174 172 174 172 173 184 181 181 179 170 175 177 178
286 331 356 225 212 224 180 49 246 242 244 261 241 259 261 258 252 182 197 191 201 197 170 215 237 248 249 281 290 293 341 296 293 290 275 249 228 219 207 210 209 208 206 207 204 205 210 213 215 214 217 217 216 216 218 219 218 215 214 211 208 207 209 210 210 208 204 204 201 201 200 196 185 181 176 172 175 180 180 182 183 180 177 180 178 179 175 177 180 183 175 179 174 176 179 181 182
78 275 237 36 337 256 206 195 302 306 268 270 266 265 271 261 266 217 306 142 166 166 202 239 235 229 231 275 282 331 323 307 298 278 252 246 260 235 210 205 206 205 205 207 207 207 213 212 210 215 220 218 217 217 216 216 214 215 213 210 211 209 209 210 208 204 206 206 203 202 200 194 190 180 181 178 180 180 182 180 184 181 179 180 179 179 178 178 181 186 177 182 176 178 182 181 180
174 207 228 167 215 12 20 319 200 225 252 242 273 278 269 314 113 121 130 159 171 214 228 197 229 237 241 257 304 301 292 295 267 248 236 206 227 236 229 219 216 214 212 210 209 213 216 213 218 217 217 216 218 217 213 215 212 216 214 211 207 206 208 208 208 207 208 208 203 200 198 194 182 185 177 181 184 182 184 184 184 184 182 179 178 177 177 176 183 183 181 181 169 178 183 187 180
189 182 207 202 173 215 209 243 112 212 225 232 238 256 274 255 247 123 164 201 207 204 230 255 228 233 256 334 263 254 276 266 280 323 340 303 240 223 223 219 217 217 219 217 218 219 221 219 220 218 218 219 217 216 213 215 213 215 214 213 211 209 208 207 207 206 208 207 200 194 188 182 184 182 178 180 181 181 184 183 185 184 182 181 177 176 173 177 181 179 180 172 171 176 181 188 184